Location: Drocourt
(49.0571°N, 1.7669°E)
Time: 11:47:16
(UTC+00:00)

Transit 4A - Pass Details

Date: 18 April 2024
Orbit: 871 x 971 km, 66.8° (Epoch: 24 May)

Event Time Altitude Azimuth Distance (km) Brightness Sun altitude
Rises 16:36:36 0° 290° (WNW) 3,500 12.0 20.8°
Reaches altitude 10° 16:40:21 10° 313° (NW) 2,546 10.9 20.1°
Maximum altitude 16:43:36 15° 347° (NNW) 2,204 10.1 19.6°
Drops below altitude 10° 16:46:50 10° 21° (NNE) 2,532 10.0 19.1°
Sets 16:50:33 0° 45° (NE) 3,469 10.5 18.5°
